Regional Weather Roundup
Issued by NWS

Home | Current Version | Previous Version | Graphics & Text | Print | Product List | Glossary On
Versions: 1 2 3 4 5 6 7 8 9 10 11 12 13 14 15 16 17 18 19 20 21 22 23 24 25 26 27 28 29 30 31 32 33 34 35 36 37 38 39 40 41 42 43 44 45 46 47 48 49 50
000
ASUS43 KBIS 250510
RWRND
NORTH DAKOTA REGIONAL WEATHER ROUNDUP
NATIONAL WEATHER SERVICE EASTERN NORTH DAKOTA/GRAND FORKS ND
1200 AM CDT FRI MAY 25 2018

  NOTE: "FAIR" INDICATES FEW OR NO CLOUDS BELOW 12,000 FEET WITH NO
  SIGNIFICANT WEATHER AND/OR OBSTRUCTIONS TO VISIBILITY.

NDZ001>003-009>011-017-250600-
...NORTHWEST NORTH DAKOTA...

CITY           SKY/WX    TMP DP  RH WIND       PRES   REMARKS
WILLISTON      FAIR      68  51  54 W7        29.75R
MINOT          FAIR      68  54  60 SW9       29.71F
MINOT AFB      FAIR      65  55  70 W8        29.69F
$$

NDZ018>021-031>035-040>046-250600-
...SOUTHWEST NORTH DAKOTA...

CITY           SKY/WX    TMP DP  RH WIND       PRES   REMARKS
BISMARCK       FAIR      67  56  67 SW6       29.79R
DICKINSON      FAIR      60  52  74 W9        29.82R
GARRISON         N/A     60  52  74 SW3       29.75R
HETTINGER      FAIR      58  51  78 CALM      29.88R
$$

NDZ004>008-012>016-024-026-027-054-250600-
...NORTHEAST NORTH DAKOTA...

CITY           SKY/WX    TMP DP  RH WIND       PRES   REMARKS
GRAND FORKS    FAIR      74  55  51 W9        29.66R
GRAND FORKS AF FAIR      71  55  55 W6        29.68R
DEVILS LAKE    FAIR      64  54  69 W8        29.72S
$$

NDZ022-023-025-028>030-036>039-047>053-250600-
...SOUTHEAST NORTH DAKOTA...

CITY           SKY/WX    TMP DP  RH WIND       PRES   REMARKS
JAMESTOWN      FAIR      70  57  63 W8        29.75R
FARGO          FAIR      73  59  61 SW10      29.72R
WAHPETON       FAIR      73  61  64 S10       29.76S
$$




USA.gov is the U.S. government's official web portal to all federal, state and local government web resources and services.